SCP
-0 -0 -0 0 0 0 0 0 0 0 0 0 0 0 0 0 0 0 0 0 0 0 0 0 0 0 0 0 0 0 0 0 0 0 0 0 0 0 0 0 0 0 0 0 0 0 0
0 0 0 0 0 0 0 0 0 0 0 0 0 0 0 0 0 0 0 0 0 0 0 0 0 0 0 0 0 0 0 0 0 0 0 0 0 0 0 0 0 0 0 0 0 0 0
0 0 0 0 0 0 0 0 0 0 0 0 0 0 0 0 0 0 0 0 0 0 0 0 0 0 0 -0 0 0 0 0 0 0 0 0 0 0 0 0 0 0 0 0 0 0 0
0 0 0 0 0 0 0 0 0 0 0 0 0 0 0 0 0 0 0 0 0 0 0 0 0 0 0 0 0 0 0 0 0 0 0 0 0 0 0 0 0 0 0 0 0 0 0
0 0 0 0 0 0 0 0 0 0 0 0 0 0 0 0 0 0 0 0 0 0 0 0 0 0 0 0 0 0 0 0 0 0 0 0 0 0 0 0 0 0 0 0 0 0 0
0 0 0 0 0 0 0 0 0 0 0 0 0 0 0 0 0 0 0 0 0 -0 -0 -0 0 0 0 0 0 0 0 0 0 0 0 0 0 0 0 0 0 0 0 0 0 0 0
0 0 0 0 0 0 0 0 0 0 0 0 0 0 0 0 0 0 0 0 0 0 0 0 0 0 0 0 0 0 0 0 0 0 0 0 0 0 0 0 0 0 0 0 0 0 0
0 0 0 0 0 0 0 0 0 0 0 0 0 0 0 0 0 0 0 0 0 0 0 0 0 0 0 0 0 0 0 0 0 0 0 0 0 0 0 0 0 0 0 0 0 0 0
0 0 0 0 0 0 0 0 0 0 0 0 0 0 0 0 0 0 0 0 0 0 -0 -0 0 0 0 0 0 0 0 0 0 0 0 0 0 0 0 0 0 0 0 0 0 0 0
0 0 0 0 0 0 0 0 0 0 0 0 0 0 0 0 0 0 0 0 0 0 -0 -0 0 0 0 0 0 0 0 0 0 0 0 0 0 0 0 0 0 0 0 0 0 0 0
0 0 0 0 0 0 0 0 0 0 0 0 0 0 0 0 0 0 0 0 0 0 0 0 0 0 0 0 0 0 0 0 0 0 0 0 0 0 0 0 0 0 0 0 0 0 -0
0 0 0 0 0 0 0 0 0 0 0 0 0 0 0 0 0 0 0 0 0 0 0 0 0 0 0 0 0 0 0 0 0 0 0 0 0 0 0 0 0 0 0 0 0 -0 -0
0 0 0 0 0 0 0 0 0 0 0 0 0 0 0 0 0 0 0 0 0 0 0 0 0 0 0 0 0 0 0 0 0 0 0 0 0 0 0 0 0 0 0 0 0 0 -0
0 0 0 0 0 0 0 0 0 0 0 0 0 0 0 0 0 0 0 0 0 0 0 0 0 0 0 -0 0 0 0 0 0 0 0 0 0 0 0 0 0 0 0 0 -0 -0 -0
0 0 0 0 0 0 0 0 0 0 0 0 0 0 0 0 0 0 0 0 0 0 0 0 -0 -0 -0 -0 0 0 0 0 0 0 0 0 0 0 0 0 0 0 0 0 0 0 0
0 0 0 0 0 0 0 0 0 0 0 0 0 0 0 -0 0 0 0 -0 0 0 0 0 0 0 -0 -0 0 0 0 0 0 0 0 0 0 0 0 0 0 0 0 0 0 0 0
0 0 0 0 0 0 0 0 0 0 0 0 0 0 0 -0 0 0 0 -0 0 0 0 0 0 0 0 -0 -0 0 0 0 0 0 0 0 0 0 0 0 0 0 0 0 0 0 0
0 0 0 0 0 0 0 0 0 0 0 0 0 0 0 -0 -0 0 -0 -0 0 0 0 -0 0 -0 -0 0 -0 -0 0 0 0 0 0 0 0 0 0 0 0 0 0 0 0 0 0
0 0 0 0 0 0 0 0 0 0 0 0 0 0 0 0 -0 -0 -0 0 0 0 0 0 -0 0 0 -0 -0 -0 -0 -0 0 0 0 0 0 0 0 0 0 0 0 0 0 0 0
0 0 0 0 0 0 0 0 0 0 0 0 0 0 0 0 -0 -0 -0 -0 -0 -0 -0 -0 -0 -0 -0 -0 -0 -0 -0 -0 -0 0 0 0 0 0 0 0 0 0 0 0 0 0 0
0 0 0 0 0 0 0 0 0 0 0 0 0 0 0 0 0 -0 0 0 -0 -0 -0 -0 -0 -0 0 -0 0 -0 -0 -0 -0 -0 0 0 0 0 0 0 0 0 0 0 0 -0 0
0 0 0 0 0 0 0 0 0 0 0 0 0 0 0 0 0 0 0 0 0 -0 -0 0 -0 0 0 -0 -0 0 0 -0 -0 -0 0 0 0 0 -0 -0 -0 0 0 0 0 0 -0
0 0 0 0 0 0 0 0 0 0 0 0 0 0 0 0 0 0 0 0 0 0 -0 0 -0 0 0 0 -0 -0 -0 -0 -0 -0 0 0 0 0 0 0 0 -0 0 0 0 0 0
0 0 0 0 0 0 0 0 0 0 0 0 0 0 0 0 0 0 0 0 0 0 -0 0 -0 -0 -0 -0 -0 0 -0 -0 -0 -0 -0 0 0 0 0 0 0 -0 -0 0 0 0 0
0 0 0 0 0 0 0 0 0 0 0 0 0 0 0 0 0 0 0 0 0 0 0 0 0 -0 -0 -0 -0 -0 -0 -0 -0 -0 -0 0 0 0 0 0 0 0 0 0 0 0 0
0 0 0 0 0 0 0 0 0 0 0 0 0 0 0 0 0 0 0 0 0 0 0 -0 -0 -0 -0 0 -0 -0 -0 -0 -0 -0 0 0 0 0 0 0 0 0 0 0 0 0 0
0 0 0 0 0 0 0 0 0 0 0 0 0 0 0 0 0 0 0 0 0 0 0 0 -0 -0 0 -0 0 -0 0 0 0 0 -0 0 0 0 0 0 0 0 0 0 0 0 0
0 0 0 0 0 0 0 0 0 0 0 0 0 0 0 0 0 0 0 0 0 0 0 0 0 -0 0 0 -0 0 0 0 0 -0 -0 0 0 0 0 0 0 0 0 0 0 0 0
0 0 0 0 0 0 0 0 0 0 0 0 0 0 0 0 0 0 0 0 0 -0 0 0 0 0 0 0 0 0 0 0 0 -0 0 0 0 0 0 0 0 0 0 0 0 0 0
Wind_Speed_500mb
28 29 29 30 31 35 36 36 37 37 38 39 39 39 40 41 43 43 41 39 40 44 47 50 48 46 49 33 50 11 25 14 8 25 52 64 61 44 19 18 32 17 25 39 51 53 55
30 31 32 33 34 35 37 37 38 39 40 40 41 42 42 42 43 43 43 45 43 42 43 44 40 35 35 39 59 59 74 48 30 15 13 51 39 56 22 21 18 18 41 49 40 59 65
35 35 35 36 37 38 37 37 39 41 42 43 45 46 47 47 47 48 48 46 46 46 47 43 37 33 51 87 48 42 36 74 69 62 56 38 47 38 23 4 24 21 12 16 27 40 20
35 36 37 38 39 41 40 40 42 44 45 44 43 44 47 49 49 50 49 51 52 53 54 48 37 25 39 45 54 64 69 58 51 55 57 47 36 49 11 7 1 6 6 6 9 11 15
38 37 37 39 40 41 39 37 40 42 43 45 48 50 50 49 49 52 52 52 53 54 47 38 21 20 36 29 53 60 66 80 72 54 36 21 47 33 9 15 13 4 22 20 13 17 9
45 45 44 44 46 44 41 42 43 43 42 43 44 47 50 53 54 51 52 53 42 28 20 5 11 11 30 23 23 30 26 43 61 36 50 29 24 11 11 16 33 13 10 12 19 4 8
38 39 41 40 41 44 42 43 43 44 43 44 45 46 46 46 51 55 50 49 16 7 15 15 18 39 55 29 26 12 22 23 43 35 21 26 15 45 45 33 11 10 25 32 9 6 13
41 43 44 46 45 44 43 44 44 43 43 44 48 49 48 46 46 49 41 11 9 16 24 49 62 69 79 77 38 48 25 22 24 31 24 13 58 43 26 34 34 25 27 32 16 7 12
43 44 45 47 47 47 47 47 45 44 45 47 48 47 46 49 48 38 19 12 14 36 12 33 56 37 48 53 49 81 35 25 13 26 48 50 52 29 34 26 32 33 40 32 20 9 11
46 48 48 48 48 49 49 48 44 45 47 50 47 45 46 49 32 25 29 1 24 24 8 15 10 15 13 19 21 84 54 26 14 37 35 36 42 40 24 39 33 39 32 30 22 7 13
48 47 47 47 48 48 50 49 47 47 52 52 44 45 46 38 42 24 21 18 14 5 9 5 5 0 28 19 25 30 92 49 20 19 20 25 35 42 46 48 41 26 20 18 17 14 4
49 49 47 48 49 50 52 51 50 52 52 50 48 51 47 41 33 19 10 15 2 4 15 8 13 27 20 10 32 22 36 51 26 12 18 22 25 45 20 24 33 14 9 8 7 2 16
50 52 52 50 53 55 54 55 53 54 55 55 54 49 41 35 31 23 19 7 4 9 12 10 17 30 29 30 18 11 17 41 21 23 26 11 27 3 14 11 14 15 15 2 6 1 10
51 54 54 56 58 58 56 54 56 54 55 56 54 47 32 16 15 12 1 3 13 8 7 23 24 27 19 31 24 45 8 16 35 5 18 16 10 34 12 19 18 31 20 13 11 7 10
50 54 55 59 59 58 56 55 56 54 56 58 59 38 18 26 9 13 4 3 6 7 7 20 25 13 9 22 10 21 13 13 3 32 9 13 12 8 29 14 39 16 21 19 4 3 1
51 53 55 56 58 59 56 56 58 56 55 62 58 23 31 22 5 12 3 7 7 10 14 10 9 9 13 24 14 19 17 26 23 19 7 7 5 11 27 11 38 22 22 14 12 13 8
52 54 55 56 58 57 55 56 58 56 58 64 29 10 23 23 12 3 1 8 9 20 16 7 7 8 17 24 8 5 12 24 42 44 20 14 3 3 20 27 25 10 13 6 14 10 10
51 53 56 57 56 55 54 56 60 55 58 65 23 5 16 16 6 3 3 6 15 16 20 14 9 16 19 16 10 4 10 12 45 34 20 6 5 6 26 14 41 34 20 14 15 19 7
51 53 55 57 54 54 52 53 54 52 53 55 22 11 10 13 5 4 8 9 9 10 13 6 10 8 13 11 10 15 3 5 22 31 25 16 8 4 4 6 6 42 40 23 11 7 32
54 54 54 56 54 51 51 50 49 47 50 39 14 8 9 7 5 6 11 13 8 18 18 9 9 11 8 9 13 12 13 5 9 22 33 26 7 9 16 4 10 10 32 36 18 6 8
56 55 54 56 56 50 49 48 46 47 46 25 16 5 6 8 8 15 13 7 9 12 11 17 7 3 10 5 13 5 14 10 5 13 12 11 7 7 28 23 17 1 19 41 33 41 21
56 56 55 55 55 52 48 48 42 41 42 16 14 9 11 13 21 13 8 6 8 12 8 9 6 19 14 8 9 15 18 11 2 2 3 6 8 13 9 13 27 21 22 21 47 39 36
56 57 56 55 56 55 53 46 39 30 33 12 15 19 13 12 9 5 4 8 19 24 22 19 17 23 23 23 11 29 35 34 14 4 3 4 6 12 9 14 9 22 43 23 9 24 31
57 57 57 54 53 59 57 50 40 21 23 21 18 18 9 8 8 7 21 31 26 24 20 37 41 14 15 36 54 42 37 34 25 20 16 8 3 3 8 10 11 11 8 31 29 15 17
60 59 57 52 52 63 61 52 40 20 20 25 23 13 9 8 17 25 19 20 35 35 20 24 33 21 43 24 6 8 3 3 17 29 24 25 6 6 5 4 10 8 17 13 6 4 19
63 60 54 48 58 66 64 52 37 21 15 25 25 14 16 11 8 13 27 31 11 8 8 10 37 24 12 2 4 7 6 4 7 16 8 12 23 11 3 5 10 11 30 25 4 8 23
63 57 48 54 63 67 66 52 32 22 13 23 29 22 16 15 28 13 11 11 13 12 7 13 24 12 14 6 3 3 7 3 3 6 5 5 5 10 4 5 3 28 33 21 16 8 30
62 55 51 57 65 67 65 52 32 21 17 21 29 28 24 18 49 38 30 25 24 21 7 18 15 5 5 10 5 5 5 4 3 3 5 4 1 5 4 5 2 36 14 14 13 30 36
62 57 50 61 65 66 64 49 32 22 14 20 25 14 16 26 48 65 58 50 51 38 31 8 6 6 5 5 3 7 4 6 6 4 6 3 5 4 9 4 18 26 4 12 27 36 37
Wind_Direction_500mb
11 7 2 354 349 346 344 342 340 338 337 336 334 330 328 326 326 325 325 324 318 308 299 292 287 286 284 258 236 234 201 177 40 206 212 202 189 186 178 216 217 230 240 247 254 268 269
4 358 354 349 345 342 341 340 336 335 331 328 327 326 325 324 323 323 322 318 314 310 307 302 296 287 277 253 260 251 243 239 247 272 250 201 207 203 205 221 185 201 237 253 268 264 263
356 351 348 344 340 337 337 336 333 330 330 329 328 326 324 323 321 318 317 316 311 311 309 303 298 284 264 250 249 262 257 246 245 248 252 253 213 200 217 289 247 243 233 263 244 254 253
352 348 346 342 338 335 334 334 331 330 328 327 325 323 321 321 320 318 317 310 308 311 304 291 281 281 260 272 270 255 246 249 240 242 245 247 241 231 229 217 38 192 178 241 241 206 250
357 354 351 348 346 342 340 335 330 328 326 324 323 323 322 320 319 318 317 310 314 309 303 288 261 246 273 275 261 270 252 240 239 242 233 213 220 220 206 227 283 255 254 250 292 231 239
359 357 354 352 347 342 345 341 339 339 336 331 327 324 324 324 322 321 320 319 319 315 328 43 216 263 265 264 310 289 295 241 226 226 217 215 211 191 183 173 216 203 236 235 235 260 227
1 356 356 351 351 351 349 345 342 340 337 336 332 328 326 322 322 325 329 335 357 315 328 276 246 254 283 290 322 218 274 213 200 197 177 180 198 218 207 208 206 206 229 242 248 202 243
7 7 3 357 355 352 349 345 342 341 338 337 334 332 328 326 323 321 323 356 51 321 297 292 279 257 269 274 282 274 237 151 183 196 156 168 227 219 196 204 208 211 237 248 264 198 228
11 6 360 356 354 349 346 342 342 343 341 338 334 333 330 325 326 321 342 6 333 334 270 286 263 251 246 249 231 255 236 196 173 184 190 200 225 199 195 194 205 214 221 236 238 307 262
9 4 360 359 356 353 349 347 344 341 339 334 331 330 331 324 325 325 324 224 325 323 299 272 220 251 235 240 247 233 224 210 191 191 195 228 223 194 191 207 194 222 215 236 253 255 255
8 5 3 3 359 360 355 348 343 340 337 335 336 329 323 318 305 306 313 306 303 160 318 246 180 306 321 187 306 233 218 229 202 169 166 213 178 199 204 204 193 224 178 211 225 231 208
8 5 4 4 359 356 354 349 343 340 338 337 332 328 322 315 296 314 317 326 241 110 245 319 27 340 329 231 259 279 175 211 222 184 246 213 200 196 176 189 197 169 143 80 31 140 258
11 8 6 0 356 352 349 349 347 345 341 335 333 329 321 303 285 303 312 301 123 202 338 26 339 336 329 355 1 342 232 196 186 188 207 168 232 197 159 174 164 131 98 258 335 242 225
7 5 4 0 355 354 352 347 347 347 346 341 338 335 330 331 283 268 267 76 226 286 308 351 340 319 347 14 338 339 266 223 241 243 167 173 202 199 177 184 171 184 161 155 199 214 249
3 2 2 1 357 356 354 351 348 350 349 346 342 347 23 5 326 147 151 190 246 328 24 337 342 335 350 4 10 343 321 355 300 238 252 162 234 166 185 164 180 176 201 175 63 173 312
3 360 1 359 358 356 354 352 350 350 350 345 342 353 10 353 101 147 101 243 272 333 331 323 309 299 325 343 348 348 310 30 348 343 277 244 167 190 203 147 187 174 145 178 194 196 231
2 0 359 359 357 357 354 352 351 347 349 349 351 12 9 19 163 153 235 267 297 292 326 314 313 310 305 314 325 21 299 317 4 349 349 0 107 255 137 198 172 152 167 145 164 159 163
360 358 356 357 357 357 353 351 352 348 351 353 358 33 349 340 12 31 279 274 312 289 292 281 263 246 251 294 326 266 259 287 348 341 343 306 321 217 211 161 195 198 174 158 189 196 206
354 353 352 352 354 355 352 350 354 355 355 350 342 309 351 1 34 315 297 284 263 290 289 325 305 288 308 294 306 232 266 226 323 336 354 334 304 148 47 320 139 203 203 199 117 107 210
349 349 350 349 351 352 352 349 349 355 354 352 353 345 350 44 20 309 322 300 287 290 286 262 260 283 281 274 299 287 276 242 351 330 334 336 283 272 218 206 134 160 207 210 193 158 185
348 346 348 346 346 349 349 349 346 351 357 6 8 332 328 320 328 322 309 284 291 329 316 309 298 241 324 301 308 346 15 321 79 45 348 3 273 290 309 291 286 153 185 201 204 215 208
349 347 348 347 345 346 348 348 347 346 353 13 2 333 312 281 292 320 321 277 328 337 307 313 290 313 311 272 260 287 295 310 333 111 329 290 283 345 300 270 272 264 263 229 204 208 227
347 347 346 346 346 344 345 345 346 342 344 352 339 328 294 281 297 296 271 308 307 313 289 234 300 311 301 294 325 291 273 264 220 199 136 261 303 4 305 340 267 263 238 233 218 221 202
347 345 342 344 346 342 342 343 341 333 331 327 321 344 290 283 262 268 288 296 287 285 287 289 289 262 260 299 308 289 254 243 218 207 195 218 114 228 267 308 179 235 173 211 222 222 223
348 346 342 343 346 343 340 341 338 336 313 308 311 314 284 279 277 287 310 290 304 307 283 268 292 298 297 302 265 283 211 191 220 216 217 219 181 233 202 235 272 75 29 3 16 134 7
348 346 345 347 347 344 341 341 338 337 313 300 302 282 279 287 260 306 312 295 298 303 302 260 321 331 343 242 242 183 250 285 153 142 46 307 210 206 175 191 188 25 322 312 257 190 1
349 349 349 347 346 344 342 343 338 334 312 293 296 290 265 271 281 279 285 302 289 300 294 294 338 341 9 339 355 183 235 164 217 162 120 36 64 198 202 259 320 340 319 308 158 285 320
348 348 345 347 346 343 342 342 342 339 321 291 293 292 260 266 284 270 272 260 279 279 298 316 338 337 328 15 308 330 272 197 125 32 63 104 302 206 187 260 154 359 5 62 283 304 317
347 345 343 347 347 345 343 342 345 342 307 277 285 296 262 263 270 297 291 281 270 274 267 277 264 266 264 289 271 292 358 348 344 90 27 97 52 289 349 28 336 330 290 334 337 314 318
Wind_Speed_850mb
28 29 29 30 31 35 36 36 37 37 38 39 39 39 40 41 43 43 41 39 40 44 47 50 48 46 49 33 50 11 25 14 8 25 52 64 61 44 19 18 32 17 25 39 51 53 55
30 31 32 33 34 35 37 37 38 39 40 40 41 42 42 42 43 43 43 45 43 42 43 44 40 35 35 39 59 59 74 48 30 15 13 51 39 56 22 21 18 18 41 49 40 59 65
35 35 35 36 37 38 37 37 39 41 42 43 45 46 47 47 47 48 48 46 46 46 47 43 37 33 51 87 48 42 36 74 69 62 56 38 47 38 23 4 24 21 12 16 27 40 20
35 36 37 38 39 41 40 40 42 44 45 44 43 44 47 49 49 50 49 51 52 53 54 48 37 25 39 45 54 64 69 58 51 55 57 47 36 49 11 7 1 6 6 6 9 11 15
38 37 37 39 40 41 39 37 40 42 43 45 48 50 50 49 49 52 52 52 53 54 47 38 21 20 36 29 53 60 66 80 72 54 36 21 47 33 9 15 13 4 22 20 13 17 9
45 45 44 44 46 44 41 42 43 43 42 43 44 47 50 53 54 51 52 53 42 28 20 5 11 11 30 23 23 30 26 43 61 36 50 29 24 11 11 16 33 13 10 12 19 4 8
38 39 41 40 41 44 42 43 43 44 43 44 45 46 46 46 51 55 50 49 16 7 15 15 18 39 55 29 26 12 22 23 43 35 21 26 15 45 45 33 11 10 25 32 9 6 13
41 43 44 46 45 44 43 44 44 43 43 44 48 49 48 46 46 49 41 11 9 16 24 49 62 69 79 77 38 48 25 22 24 31 24 13 58 43 26 34 34 25 27 32 16 7 12
43 44 45 47 47 47 47 47 45 44 45 47 48 47 46 49 48 38 19 12 14 36 12 33 56 37 48 53 49 81 35 25 13 26 48 50 52 29 34 26 32 33 40 32 20 9 11
46 48 48 48 48 49 49 48 44 45 47 50 47 45 46 49 32 25 29 1 24 24 8 15 10 15 13 19 21 84 54 26 14 37 35 36 42 40 24 39 33 39 32 30 22 7 13
48 47 47 47 48 48 50 49 47 47 52 52 44 45 46 38 42 24 21 18 14 5 9 5 5 0 28 19 25 30 92 49 20 19 20 25 35 42 46 48 41 26 20 18 17 14 4
49 49 47 48 49 50 52 51 50 52 52 50 48 51 47 41 33 19 10 15 2 4 15 8 13 27 20 10 32 22 36 51 26 12 18 22 25 45 20 24 33 14 9 8 7 2 16
50 52 52 50 53 55 54 55 53 54 55 55 54 49 41 35 31 23 19 7 4 9 12 10 17 30 29 30 18 11 17 41 21 23 26 11 27 3 14 11 14 15 15 2 6 1 10
51 54 54 56 58 58 56 54 56 54 55 56 54 47 32 16 15 12 1 3 13 8 7 23 24 27 19 31 24 45 8 16 35 5 18 16 10 34 12 19 18 31 20 13 11 7 10
50 54 55 59 59 58 56 55 56 54 56 58 59 38 18 26 9 13 4 3 6 7 7 20 25 13 9 22 10 21 13 13 3 32 9 13 12 8 29 14 39 16 21 19 4 3 1
51 53 55 56 58 59 56 56 58 56 55 62 58 23 31 22 5 12 3 7 7 10 14 10 9 9 13 24 14 19 17 26 23 19 7 7 5 11 27 11 38 22 22 14 12 13 8
52 54 55 56 58 57 55 56 58 56 58 64 29 10 23 23 12 3 1 8 9 20 16 7 7 8 17 24 8 5 12 24 42 44 20 14 3 3 20 27 25 10 13 6 14 10 10
51 53 56 57 56 55 54 56 60 55 58 65 23 5 16 16 6 3 3 6 15 16 20 14 9 16 19 16 10 4 10 12 45 34 20 6 5 6 26 14 41 34 20 14 15 19 7
51 53 55 57 54 54 52 53 54 52 53 55 22 11 10 13 5 4 8 9 9 10 13 6 10 8 13 11 10 15 3 5 22 31 25 16 8 4 4 6 6 42 40 23 11 7 32
54 54 54 56 54 51 51 50 49 47 50 39 14 8 9 7 5 6 11 13 8 18 18 9 9 11 8 9 13 12 13 5 9 22 33 26 7 9 16 4 10 10 32 36 18 6 8
56 55 54 56 56 50 49 48 46 47 46 25 16 5 6 8 8 15 13 7 9 12 11 17 7 3 10 5 13 5 14 10 5 13 12 11 7 7 28 23 17 1 19 41 33 41 21
56 56 55 55 55 52 48 48 42 41 42 16 14 9 11 13 21 13 8 6 8 12 8 9 6 19 14 8 9 15 18 11 2 2 3 6 8 13 9 13 27 21 22 21 47 39 36
56 57 56 55 56 55 53 46 39 30 33 12 15 19 13 12 9 5 4 8 19 24 22 19 17 23 23 23 11 29 35 34 14 4 3 4 6 12 9 14 9 22 43 23 9 24 31
57 57 57 54 53 59 57 50 40 21 23 21 18 18 9 8 8 7 21 31 26 24 20 37 41 14 15 36 54 42 37 34 25 20 16 8 3 3 8 10 11 11 8 31 29 15 17
60 59 57 52 52 63 61 52 40 20 20 25 23 13 9 8 17 25 19 20 35 35 20 24 33 21 43 24 6 8 3 3 17 29 24 25 6 6 5 4 10 8 17 13 6 4 19
63 60 54 48 58 66 64 52 37 21 15 25 25 14 16 11 8 13 27 31 11 8 8 10 37 24 12 2 4 7 6 4 7 16 8 12 23 11 3 5 10 11 30 25 4 8 23
63 57 48 54 63 67 66 52 32 22 13 23 29 22 16 15 28 13 11 11 13 12 7 13 24 12 14 6 3 3 7 3 3 6 5 5 5 10 4 5 3 28 33 21 16 8 30
62 55 51 57 65 67 65 52 32 21 17 21 29 28 24 18 49 38 30 25 24 21 7 18 15 5 5 10 5 5 5 4 3 3 5 4 1 5 4 5 2 36 14 14 13 30 36
62 57 50 61 65 66 64 49 32 22 14 20 25 14 16 26 48 65 58 50 51 38 31 8 6 6 5 5 3 7 4 6 6 4 6 3 5 4 9 4 18 26 4 12 27 36 37
Wind_Direction_850mb
11 7 2 354 349 346 344 342 340 338 337 336 334 330 328 326 326 325 325 324 318 308 299 292 287 286 284 258 236 234 201 177 40 206 212 202 189 186 178 216 217 230 240 247 254 268 269
4 358 354 349 345 342 341 340 336 335 331 328 327 326 325 324 323 323 322 318 314 310 307 302 296 287 277 253 260 251 243 239 247 272 250 201 207 203 205 221 185 201 237 253 268 264 263
356 351 348 344 340 337 337 336 333 330 330 329 328 326 324 323 321 318 317 316 311 311 309 303 298 284 264 250 249 262 257 246 245 248 252 253 213 200 217 289 247 243 233 263 244 254 253
352 348 346 342 338 335 334 334 331 330 328 327 325 323 321 321 320 318 317 310 308 311 304 291 281 281 260 272 270 255 246 249 240 242 245 247 241 231 229 217 38 192 178 241 241 206 250
357 354 351 348 346 342 340 335 330 328 326 324 323 323 322 320 319 318 317 310 314 309 303 288 261 246 273 275 261 270 252 240 239 242 233 213 220 220 206 227 283 255 254 250 292 231 239
359 357 354 352 347 342 345 341 339 339 336 331 327 324 324 324 322 321 320 319 319 315 328 43 216 263 265 264 310 289 295 241 226 226 217 215 211 191 183 173 216 203 236 235 235 260 227
1 356 356 351 351 351 349 345 342 340 337 336 332 328 326 322 322 325 329 335 357 315 328 276 246 254 283 290 322 218 274 213 200 197 177 180 198 218 207 208 206 206 229 242 248 202 243
7 7 3 357 355 352 349 345 342 341 338 337 334 332 328 326 323 321 323 356 51 321 297 292 279 257 269 274 282 274 237 151 183 196 156 168 227 219 196 204 208 211 237 248 264 198 228
11 6 360 356 354 349 346 342 342 343 341 338 334 333 330 325 326 321 342 6 333 334 270 286 263 251 246 249 231 255 236 196 173 184 190 200 225 199 195 194 205 214 221 236 238 307 262
9 4 360 359 356 353 349 347 344 341 339 334 331 330 331 324 325 325 324 224 325 323 299 272 220 251 235 240 247 233 224 210 191 191 195 228 223 194 191 207 194 222 215 236 253 255 255
8 5 3 3 359 360 355 348 343 340 337 335 336 329 323 318 305 306 313 306 303 160 318 246 180 306 321 187 306 233 218 229 202 169 166 213 178 199 204 204 193 224 178 211 225 231 208
8 5 4 4 359 356 354 349 343 340 338 337 332 328 322 315 296 314 317 326 241 110 245 319 27 340 329 231 259 279 175 211 222 184 246 213 200 196 176 189 197 169 143 80 31 140 258
11 8 6 0 356 352 349 349 347 345 341 335 333 329 321 303 285 303 312 301 123 202 338 26 339 336 329 355 1 342 232 196 186 188 207 168 232 197 159 174 164 131 98 258 335 242 225
7 5 4 0 355 354 352 347 347 347 346 341 338 335 330 331 283 268 267 76 226 286 308 351 340 319 347 14 338 339 266 223 241 243 167 173 202 199 177 184 171 184 161 155 199 214 249
3 2 2 1 357 356 354 351 348 350 349 346 342 347 23 5 326 147 151 190 246 328 24 337 342 335 350 4 10 343 321 355 300 238 252 162 234 166 185 164 180 176 201 175 63 173 312
3 360 1 359 358 356 354 352 350 350 350 345 342 353 10 353 101 147 101 243 272 333 331 323 309 299 325 343 348 348 310 30 348 343 277 244 167 190 203 147 187 174 145 178 194 196 231
2 0 359 359 357 357 354 352 351 347 349 349 351 12 9 19 163 153 235 267 297 292 326 314 313 310 305 314 325 21 299 317 4 349 349 0 107 255 137 198 172 152 167 145 164 159 163
360 358 356 357 357 357 353 351 352 348 351 353 358 33 349 340 12 31 279 274 312 289 292 281 263 246 251 294 326 266 259 287 348 341 343 306 321 217 211 161 195 198 174 158 189 196 206
354 353 352 352 354 355 352 350 354 355 355 350 342 309 351 1 34 315 297 284 263 290 289 325 305 288 308 294 306 232 266 226 323 336 354 334 304 148 47 320 139 203 203 199 117 107 210
349 349 350 349 351 352 352 349 349 355 354 352 353 345 350 44 20 309 322 300 287 290 286 262 260 283 281 274 299 287 276 242 351 330 334 336 283 272 218 206 134 160 207 210 193 158 185
348 346 348 346 346 349 349 349 346 351 357 6 8 332 328 320 328 322 309 284 291 329 316 309 298 241 324 301 308 346 15 321 79 45 348 3 273 290 309 291 286 153 185 201 204 215 208
349 347 348 347 345 346 348 348 347 346 353 13 2 333 312 281 292 320 321 277 328 337 307 313 290 313 311 272 260 287 295 310 333 111 329 290 283 345 300 270 272 264 263 229 204 208 227
347 347 346 346 346 344 345 345 346 342 344 352 339 328 294 281 297 296 271 308 307 313 289 234 300 311 301 294 325 291 273 264 220 199 136 261 303 4 305 340 267 263 238 233 218 221 202
347 345 342 344 346 342 342 343 341 333 331 327 321 344 290 283 262 268 288 296 287 285 287 289 289 262 260 299 308 289 254 243 218 207 195 218 114 228 267 308 179 235 173 211 222 222 223
348 346 342 343 346 343 340 341 338 336 313 308 311 314 284 279 277 287 310 290 304 307 283 268 292 298 297 302 265 283 211 191 220 216 217 219 181 233 202 235 272 75 29 3 16 134 7
348 346 345 347 347 344 341 341 338 337 313 300 302 282 279 287 260 306 312 295 298 303 302 260 321 331 343 242 242 183 250 285 153 142 46 307 210 206 175 191 188 25 322 312 257 190 1
349 349 349 347 346 344 342 343 338 334 312 293 296 290 265 271 281 279 285 302 289 300 294 294 338 341 9 339 355 183 235 164 217 162 120 36 64 198 202 259 320 340 319 308 158 285 320
348 348 345 347 346 343 342 342 342 339 321 291 293 292 260 266 284 270 272 260 279 279 298 316 338 337 328 15 308 330 272 197 125 32 63 104 302 206 187 260 154 359 5 62 283 304 317
347 345 343 347 347 345 343 342 345 342 307 277 285 296 262 263 270 297 291 281 270 274 267 277 264 266 264 289 271 292 358 348 344 90 27 97 52 289 349 28 336 330 290 334 337 314 318